Home > Weather > Ontario > Past weeks

Flag for U.S.A. Weather for the Past 2 Weeks in Ontario, California, U.S.A.

Now
54 °F

Clear.


Feels Like: 54 °F
Forecast: 51 / 83 °F
Wind: No wind

Location: Ontario International Airport

Current Time: Feb 13, 2016 at 5:42:32 AM

Latest Report: Feb 13, 2016 at 4:53 AM


Visibility: 9 mi

Pressure: 30.06 "Hg

Humidity: 49%

Dew point: 35 °F

Location of OntarioLocation

Historic Weather in Ontario — Graph

°F

Ontario Temperature Yesterday

Maximum temperature yesterday: 86 °F (at 2:53 PM)
Minimum temperature yesterday: 52 °F (at 4:53 AM)
Average temperature yesterday: 68 °F

High & Low Weather Summary for the Past Weeks

 TemperatureHumidityPressure
High88 °F (Feb 10, 2:53 PM)93% (Jan 30, 9:53 PM)30.37 "Hg (Jan 30, 9:53 PM)
Low34 °F (Feb 2, 1:53 AM)7% (Feb 7, 2:53 PM)29.59 "Hg (Jan 31, 1:53 PM)
Average59 °F41%30.11 "Hg
* Reported Jan 29 3:53 AM — Feb 13 3:53 AM, Ontario, Weather by CustomWeather, © 2016

Note: Actual official high and low records may vary slightly from our data, if they occured in-between our weather recording intervals... More about our weather records

Advertising

Ontario Weather History for the Previous 24 Hours

 ConditionsComfort  
Time TempWeatherWind HumidityBarometerVisibility
3:53 AM
Sat, Feb 13
55 °FClear.5 mph49%30.05 "Hg9 mi
2:53 AM56 °FClear.3 mph47%30.05 "Hg9 mi
1:53 AM56 °FClear.No wind49%30.06 "Hg8 mi
12:53 AM58 °FClear.No wind50%30.06 "Hg7 mi
11:53 PM
Fri, Feb 12
61 °FClear.3 mph48%30.06 "Hg6 mi
10:53 PM62 °FPassing clouds.5 mph46%30.06 "Hg7 mi
9:53 PM66 °FPassing clouds.No wind37%30.06 "Hg8 mi
8:53 PM64 °FPassing clouds.No wind41%30.06 "Hg8 mi
7:53 PM68 °FPassing clouds.5 mph35%30.05 "Hg10 mi
6:53 PM71 °FPassing clouds.6 mph30%30.04 "Hg9 mi
5:53 PM73 °FPassing clouds.7 mph27%30.03 "Hg9 mi
4:53 PM79 °FScattered clouds.10 mph24%30.02 "Hg8 mi
3:53 PM85 °FScattered clouds.8 mph9%29.99 "Hg10 mi
2:53 PM86 °FScattered clouds.8 mph10%29.99 "Hg10 mi
1:53 PM85 °FScattered clouds.No wind9%30.00 "Hg10 mi
12:53 PM84 °FPartly sunny.3 mph10%30.03 "Hg10 mi
11:53 AM81 °FScattered clouds.5 mph14%30.07 "Hg10 mi
10:53 AM76 °FScattered clouds.3 mph16%30.09 "Hg10 mi
9:53 AM72 °FScattered clouds.No wind20%30.11 "Hg10 mi
8:53 AM67 °FPartly sunny.No wind27%30.11 "Hg10 mi
7:53 AM59 °FPartly sunny.3 mph44%30.11 "Hg10 mi
6:53 AM52 °FPassing clouds.3 mph49%30.10 "Hg10 mi
5:53 AM54 °FClear.5 mph47%30.09 "Hg10 mi
Weather by CustomWeather, © 2016

See weather overviewHow to use our weather pages